This is the latest recevied weather packets stored in our database for station/object WP3OF-2. If no packets are shown the sender has not sent any weather packets the latest 10 day(s).
| Time | Temp. | Humidity | Pressure | Rain* | Wind** | Luminosity | Snow |
|---|---|---|---|---|---|---|---|
| 1777556701 | 21.67° C | 91% | 1023.4 hPa | 0 mm | - | 419 W/m² | - |
| 1777556397 | 22.78° C | 90% | 1023.4 hPa | 0 mm | - | 412 W/m² | - |
| 1777556091 | 22.22° C | 91% | 1023.4 hPa | 0 mm | - | 1093 W/m² | - |
| 1777555791 | 21.11° C | 89% | 1023.7 hPa | 0 mm | - | 1006 W/m² | - |
| 1777555488 | 21.11° C | 94% | 1023.7 hPa | 0 mm | - | 579 W/m² | - |
| 1777555184 | 21.11° C | 94% | 1023.7 hPa | 0 mm | - | 332 W/m² | - |
| 1777554882 | 21.11° C | 95% | 1023.4 hPa | 0 mm | - | 463 W/m² | - |
| 1777554579 | 21.11° C | 94% | 1023.4 hPa | 0 mm | - | 418 W/m² | - |
| 1777554275 | 20.56° C | 94% | 1023.7 hPa | 0 mm | - | 330 W/m² | - |
| 1777553972 | 20.56° C | 94% | 1023.7 hPa | 0 mm | - | 253 W/m² | - |
| 1777553668 | 21.11° C | 93% | 1023.7 hPa | 0 mm | - | 247 W/m² | - |
| 1777553365 | 20.56° C | 91% | 1023.7 hPa | 0 mm | - | 267 W/m² | - |
| 1777553062 | 20.56° C | 90% | 1023.7 hPa | 0 mm | - | 220 W/m² | - |
| 1777552757 | 21.11° C | 91% | 1023.7 hPa | 0 mm | - | 232 W/m² | - |
| 1777552453 | 21.11° C | 92% | 1023.4 hPa | 0 mm | - | 312 W/m² | - |
| 1777552150 | 21.11° C | 92% | 1023.4 hPa | 0 mm | - | 370 W/m² | - |
| 1777551847 | 21.11° C | 92% | 1023.7 hPa | 0 mm | - | 305 W/m² | - |
| 1777551545 | 21.11° C | 93% | 1023.4 hPa | 0 mm | - | 257 W/m² | - |
| 1777551241 | 21.11° C | 93% | 1023.4 hPa | 0 mm | - | 212 W/m² | - |
| 1777550938 | 21.11° C | 93% | 1023.4 hPa | 0 mm | - | 184 W/m² | - |
| 1777550635 | 20.56° C | 92% | 1023.4 hPa | 0 mm | - | 172 W/m² | - |
| 1777550330 | 20° C | 93% | 1023.4 hPa | 0 mm | - | 190 W/m² | - |
| 1777550026 | 20.56° C | 94% | 1023.4 hPa | 0 mm | - | 127 W/m² | - |
| 1777549724 | 20.56° C | 93% | 1023.4 hPa | 0 mm | - | 170 W/m² | - |
| 1777549418 | 20° C | 94% | 1023 hPa | 0 mm | - | 158 W/m² | - |
* Rain latest hour (hover to see other rain measurements)
** Current wind speed in m/s (hover to see current wind gust speed)